Weather History for Independence, KS

Change the Weather History Date:

Monday, April 29, 2013

  Actual Average (KCFV) Record (KCFV)
Temperature  
Mean Temperature 70 °F -  
Max Temperature 84 °F 71 °F 86 °F (2013)
Min Temperature 55 °F 49 °F 39 °F (2008)
Cooling Degree Days 4    
Growing Degree Days 20 (Base 50)    
Moisture  
Dew Point 57 °F    
Average Humidity 66    
Maximum Humidity 88    
Minimum Humidity 39    
Precipitation  
Precipitation 0.00 in - - ()
Sea Level Pressure  
Sea Level Pressure 29.77 in    
Wind  
Wind Speed 13 mph (South)    
Max Wind Speed 22 mph    
Max Gust Speed 25 mph    
Visibility 10 miles    
Events      
Averages and records for this station are not official NWS values.
T = Trace of Precipitation, MM = Missing Value Source: NWS Daily Summary

Daily Weather History Graph

Daily Weather History Graph

Search for Another Location

Airport:

Trip Planner

Search our weather history database for the weather conditions in past years. The results will help you decide how hot, cold, wet, or windy it might be!

Date:

Astronomy

Apr. 29, 2013 Rise Set
Actual Time 6:30 AM CDT 8:10 PM CDT
Civil Twilight 6:02 AM CDT 8:38 PM CDT
Nautical Twilight 5:29 AM CDT 9:12 PM CDT
Astronomical Twilight 4:53 AM CDT 9:48 PM CDT
Moon No Moon Rise 9:54 AM CDT (4/29)
Length of Visible Light 14h 36m
Length of Day
13h 40m
Waning Gibbous, 80% of the Moon is Illuminated
Apr 29
Waning Gibbous
May 2
Last Quarter
May 9
New
May 17
First Quarter
May 24
Full

Hourly Weather History & Observations

Time (CDT) Temp. Heat Index Dew Point Humidity Pressure Visibility Wind Dir Wind Speed Gust Speed Precip Events Conditions
12:15 AM 62.6 °F - 53.6 °F 72% 29.82 in 10.0 mi South 12.7 mph - N/A   Clear
12:35 AM 62.6 °F - 53.6 °F 72% 29.82 in 10.0 mi South 15.0 mph - N/A   Clear
12:55 AM 60.8 °F - 53.6 °F 77% 29.82 in 10.0 mi South 13.8 mph - N/A   Clear
1:15 AM 60.8 °F - 53.6 °F 77% 29.81 in 10.0 mi South 15.0 mph - N/A   Clear
1:35 AM 60.8 °F - 51.8 °F 72% 29.81 in 10.0 mi South 13.8 mph - N/A   Clear
1:55 AM 60.8 °F - 51.8 °F 72% 29.82 in 10.0 mi South 9.2 mph - N/A   Clear
2:15 AM 59.0 °F - 51.8 °F 77% 29.82 in 10.0 mi South 6.9 mph - N/A   Clear
2:35 AM 57.2 °F - 51.8 °F 82% 29.82 in 10.0 mi South 8.1 mph - N/A   Clear
2:55 AM 55.4 °F - 51.8 °F 88% 29.82 in 10.0 mi South 6.9 mph - N/A   Clear
3:15 AM 55.4 °F - 51.8 °F 88% 29.81 in 10.0 mi South 8.1 mph - N/A   Clear
3:35 AM 57.2 °F - 51.8 °F 82% 29.81 in 10.0 mi South 6.9 mph - N/A   Clear
3:55 AM 55.4 °F - 51.8 °F 88% 29.81 in 10.0 mi South 8.1 mph - N/A   Clear
4:15 AM 57.2 °F - 53.6 °F 88% 29.82 in 10.0 mi South 9.2 mph - N/A   Clear
4:35 AM 57.2 °F - 53.6 °F 88% 29.82 in 10.0 mi South 9.2 mph - N/A   Clear
4:55 AM 57.2 °F - 53.6 °F 88% 29.82 in 10.0 mi South 10.4 mph - N/A   Clear
5:15 AM 57.2 °F - 53.6 °F 88% 29.82 in 10.0 mi South 9.2 mph - N/A   Clear
5:35 AM 59.0 °F - 53.6 °F 82% 29.82 in 10.0 mi South 9.2 mph - N/A   Clear
5:55 AM 57.2 °F - 53.6 °F 88% 29.82 in 10.0 mi South 10.4 mph - N/A   Clear
6:15 AM 59.0 °F - 53.6 °F 82% 29.82 in 10.0 mi South 11.5 mph - N/A   Clear
6:35 AM 59.0 °F - 55.4 °F 88% 29.82 in 10.0 mi South 9.2 mph - N/A   Clear
6:55 AM 59.0 °F - 55.4 °F 88% 29.83 in 10.0 mi South 8.1 mph - N/A   Clear
7:15 AM 59.0 °F - 55.4 °F 88% 29.83 in 10.0 mi SSE 8.1 mph - N/A   Clear
7:35 AM 59.0 °F - 55.4 °F 88% 29.83 in 10.0 mi SSE 8.1 mph - N/A   Clear
7:55 AM 60.8 °F - 55.4 °F 82% 29.83 in 10.0 mi South 9.2 mph - N/A   Clear
8:15 AM 62.6 °F - 57.2 °F 82% 29.83 in 10.0 mi South 12.7 mph - N/A   Clear
8:35 AM 62.6 °F - 59.0 °F 88% 29.83 in 10.0 mi South 13.8 mph - N/A   Clear
8:55 AM 64.4 °F - 59.0 °F 83% 29.83 in 10.0 mi South 12.7 mph 19.6 mph N/A   Clear
9:15 AM 66.2 °F - 60.8 °F 83% 29.82 in 10.0 mi South 13.8 mph 18.4 mph N/A   Clear
9:35 AM 68.0 °F - 60.8 °F 78% 29.81 in 10.0 mi South 13.8 mph - N/A   Clear
9:55 AM 68.0 °F - 60.8 °F 78% 29.81 in 10.0 mi SSW 16.1 mph 19.6 mph N/A   Clear
10:15 AM 68.0 °F - 60.8 °F 78% 29.81 in 10.0 mi South 17.3 mph - N/A   Clear
10:35 AM 69.8 °F - 60.8 °F 73% 29.81 in 10.0 mi South 13.8 mph - N/A   Clear
10:55 AM 71.6 °F - 60.8 °F 69% 29.81 in 10.0 mi South 12.7 mph - N/A   Clear
11:15 AM 71.6 °F - 62.6 °F 73% 29.81 in 10.0 mi South 13.8 mph - N/A   Clear
11:35 AM 73.4 °F - 62.6 °F 69% 29.80 in 10.0 mi South 12.7 mph 18.4 mph N/A   Clear
11:55 AM 73.4 °F - 62.6 °F 69% 29.80 in 10.0 mi South 12.7 mph - N/A   Clear
12:15 PM 77.0 °F - 64.4 °F 65% 29.79 in 10.0 mi South 12.7 mph - N/A   Clear
12:35 PM 77.0 °F - 62.6 °F 61% 29.78 in 10.0 mi South 13.8 mph - N/A   Clear
12:55 PM 78.8 °F - 64.4 °F 61% 29.78 in 10.0 mi South 13.8 mph - N/A   Clear
1:15 PM 78.8 °F - 64.4 °F 61% 29.78 in 10.0 mi South 12.7 mph 20.7 mph N/A   Clear
1:35 PM 80.6 °F 81.8 °F 62.6 °F 54% 29.76 in 10.0 mi South 17.3 mph - N/A   Clear
1:55 PM 80.6 °F 81.8 °F 62.6 °F 54% 29.76 in 10.0 mi South 16.1 mph - N/A   Clear
2:15 PM 80.6 °F 81.8 °F 62.6 °F 54% 29.75 in 10.0 mi South 15.0 mph - N/A   Clear
2:35 PM 82.4 °F 82.9 °F 60.8 °F 48% 29.74 in 10.0 mi South 17.3 mph 23.0 mph N/A   Clear
2:55 PM 82.4 °F 82.9 °F 60.8 °F 48% 29.74 in 10.0 mi South 16.1 mph 24.2 mph N/A   Clear
3:15 PM 82.4 °F 82.9 °F 60.8 °F 48% 29.73 in 10.0 mi South 18.4 mph 23.0 mph N/A   Clear
3:35 PM 82.4 °F 82.9 °F 60.8 °F 48% 29.72 in 10.0 mi South 16.1 mph 19.6 mph N/A   Clear
3:55 PM 82.4 °F 82.5 °F 59.0 °F 45% 29.71 in 10.0 mi South 16.1 mph 23.0 mph N/A   Clear
4:15 PM 84.2 °F 83.8 °F 59.0 °F 42% 29.70 in 10.0 mi South 15.0 mph - N/A   Clear
4:35 PM 82.4 °F 82.5 °F 59.0 °F 45% 29.69 in 10.0 mi South 12.7 mph 20.7 mph N/A   Clear
4:55 PM 82.4 °F 82.0 °F 57.2 °F 42% 29.69 in 10.0 mi South 18.4 mph 23.0 mph N/A   Clear
5:15 PM 82.4 °F 82.5 °F 59.0 °F 45% 29.68 in 10.0 mi South 13.8 mph 25.3 mph N/A   Clear
5:35 PM 82.4 °F 82.0 °F 57.2 °F 42% 29.68 in 10.0 mi South 15.0 mph 24.2 mph N/A   Clear
5:55 PM 82.4 °F 82.0 °F 57.2 °F 42% 29.68 in 10.0 mi South 16.1 mph 21.9 mph N/A   Clear
6:15 PM 82.4 °F 82.5 °F 59.0 °F 45% 29.68 in 10.0 mi South 17.3 mph - N/A   Clear
6:35 PM 80.6 °F 81.1 °F 59.0 °F 48% 29.68 in 10.0 mi South 16.1 mph 20.7 mph N/A   Clear
6:55 PM 80.6 °F 80.3 °F 53.6 °F 39% 29.68 in 10.0 mi South 21.9 mph - N/A   Clear
7:15 PM 78.8 °F - 55.4 °F 44% 29.68 in 10.0 mi South 16.1 mph 21.9 mph N/A   Clear
7:35 PM 78.8 °F - 53.6 °F 42% 29.68 in 10.0 mi South 16.1 mph - N/A   Clear
7:55 PM 77.0 °F - 55.4 °F 47% 29.68 in 10.0 mi South 12.7 mph - N/A   Clear
8:15 PM 73.4 °F - 57.2 °F 57% 29.69 in 10.0 mi SSE 10.4 mph - N/A   Clear
8:35 PM 73.4 °F - 57.2 °F 57% 29.70 in 10.0 mi South 12.7 mph 17.3 mph N/A   Clear
8:55 PM 73.4 °F - 57.2 °F 57% 29.71 in 10.0 mi South 11.5 mph - N/A   Clear
9:15 PM 71.6 °F - 57.2 °F 60% 29.71 in 10.0 mi South 12.7 mph - N/A   Clear
9:35 PM 71.6 °F - 55.4 °F 57% 29.71 in 10.0 mi South 15.0 mph - N/A   Clear
9:55 PM 71.6 °F - 53.6 °F 53% 29.71 in 10.0 mi South 13.8 mph - N/A   Clear
10:35 PM 71.6 °F - 53.6 °F 53% 29.71 in 10.0 mi South 16.1 mph - N/A   Clear
10:55 PM 71.6 °F - 53.6 °F 53% 29.71 in 10.0 mi South 17.3 mph 24.2 mph N/A   Clear
11:15 PM 71.6 °F - 53.6 °F 53% 29.71 in 10.0 mi South 16.1 mph 23.0 mph N/A   Clear
11:35 PM 69.8 °F - 53.6 °F 56% 29.72 in 10.0 mi South 16.1 mph 25.3 mph N/A   Clear
11:55 PM 69.8 °F - 53.6 °F 56% 29.72 in 10.0 mi South 15.0 mph - N/A   Clear